Time,TemperatureF,DewpointF,PressureIn,WindDirection,WindDirectionDegrees,WindSpeedMPH,WindSpeedGustMPH,Humidity,HourlyPrecipIn,Conditions,Clouds,dailyrainin,SoftwareType,DateUTC
2013-06-16 00:03:00,58.2,48.5,29.72,WNW,289,7.0,7.0,70,0.00,,,0.00,Wunderground v.1.15,2013-06-16 03:03:00,
2013-06-16 00:08:00,58.3,48.2,29.72,WNW,289,8.0,9.0,69,0.00,,,0.00,Wunderground v.1.15,2013-06-16 03:08:00,
2013-06-16 00:13:00,58.0,47.9,29.72,West,260,7.0,9.0,69,0.00,,,0.00,Wunderground v.1.15,2013-06-16 03:13:00,
2013-06-16 00:18:00,57.9,48.2,29.72,WNW,288,7.0,7.0,70,0.00,,,0.00,Wunderground v.1.15,2013-06-16 03:18:00,
2013-06-16 00:23:00,57.7,48.0,29.72,West,269,7.0,7.0,70,0.00,,,0.00,Wunderground v.1.15,2013-06-16 03:23:00,
2013-06-16 00:28:00,57.6,47.9,29.72,West,278,6.0,7.0,70,0.00,,,0.00,Wunderground v.1.15,2013-06-16 03:28:00,
2013-06-16 00:33:00,57.6,47.9,29.72,WNW,290,7.0,8.0,70,0.00,,,0.00,Wunderground v.1.15,2013-06-16 03:33:00,
2013-06-16 00:38:00,57.5,47.8,29.72,West,277,7.0,8.0,70,0.00,,,0.00,Wunderground v.1.15,2013-06-16 03:38:00,
2013-06-16 00:43:00,57.5,47.8,29.72,WNW,282,8.0,8.0,70,0.00,,,0.00,Wunderground v.1.15,2013-06-16 03:43:00,
2013-06-16 00:53:00,57.5,47.4,29.72,West,278,8.0,10.0,69,0.00,,,0.00,Wunderground v.1.15,2013-06-16 03:53:00,
2013-06-16 00:58:00,57.4,47.3,29.72,West,265,8.0,9.0,69,0.00,,,0.00,Wunderground v.1.15,2013-06-16 03:58:00,
2013-06-16 01:03:00,57.3,47.2,29.73,West,265,8.0,9.0,69,0.00,,,0.00,Wunderground v.1.15,2013-06-16 04:03:00,
2013-06-16 01:08:00,57.0,47.3,29.73,West,277,7.0,8.0,70,0.00,,,0.00,Wunderground v.1.15,2013-06-16 04:08:00,
2013-06-16 01:13:00,56.9,47.2,29.73,West,279,7.0,9.0,70,0.00,,,0.00,Wunderground v.1.15,2013-06-16 04:13:00,
2013-06-16 01:18:00,56.8,47.1,29.72,West,271,7.0,7.0,70,0.00,,,0.00,Wunderground v.1.15,2013-06-16 04:18:00,
2013-06-16 01:23:00,56.7,47.4,29.72,West,270,6.0,7.0,71,0.00,,,0.00,Wunderground v.1.15,2013-06-16 04:23:00,
2013-06-16 01:28:00,56.6,47.7,29.72,WSW,255,6.0,6.0,72,0.00,,,0.00,Wunderground v.1.15,2013-06-16 04:28:00,
2013-06-16 01:33:00,56.3,47.4,29.72,WSW,242,5.0,6.0,72,0.00,,,0.00,Wunderground v.1.15,2013-06-16 04:33:00,
2013-06-16 01:38:00,56.1,47.6,29.73,West,268,4.0,5.0,73,0.00,,,0.00,Wunderground v.1.15,2013-06-16 04:38:00,
2013-06-16 01:43:00,56.0,47.5,29.72,West,260,5.0,5.0,73,0.00,,,0.00,Wunderground v.1.15,2013-06-16 04:43:00,
2013-06-16 01:48:00,56.0,47.8,29.73,West,275,5.0,6.0,74,0.00,,,0.00,Wunderground v.1.15,2013-06-16 04:48:00,
2013-06-16 01:53:00,55.8,48.0,29.73,SW,229,5.0,6.0,75,0.00,,,0.00,Wunderground v.1.15,2013-06-16 04:53:00,
2013-06-16 01:58:00,55.8,48.0,29.73,West,259,5.0,11.0,75,0.00,,,0.00,Wunderground v.1.15,2013-06-16 04:58:00,
2013-06-16 02:03:00,55.9,48.1,29.73,WSW,244,6.0,11.0,75,0.00,,,0.00,Wunderground v.1.15,2013-06-16 05:03:00,
2013-06-16 02:08:00,55.7,48.2,29.73,WSW,257,6.0,6.0,76,0.00,,,0.00,Wunderground v.1.15,2013-06-16 05:08:00,
2013-06-16 02:13:00,55.8,48.3,29.73,WNW,282,6.0,7.0,76,0.00,,,0.00,Wunderground v.1.15,2013-06-16 05:13:00,
2013-06-16 02:18:00,55.8,48.3,29.73,West,262,7.0,7.0,76,0.00,,,0.00,Wunderground v.1.15,2013-06-16 05:18:00,
2013-06-16 02:23:00,55.9,48.4,29.73,West,274,7.0,7.0,76,0.00,,,0.00,Wunderground v.1.15,2013-06-16 05:23:00,
2013-06-16 02:28:00,55.8,48.7,29.73,West,277,6.0,6.0,77,0.00,,,0.00,Wunderground v.1.15,2013-06-16 05:28:00,
2013-06-16 02:33:00,55.7,48.6,29.73,West,278,6.0,7.0,77,0.00,,,0.00,Wunderground v.1.15,2013-06-16 05:33:00,
2013-06-16 02:38:00,55.9,48.8,29.73,West,272,6.0,6.0,77,0.00,,,0.00,Wunderground v.1.15,2013-06-16 05:38:00,
2013-06-16 02:43:00,55.8,48.7,29.73,West,273,6.0,7.0,77,0.00,,,0.00,Wunderground v.1.15,2013-06-16 05:43:00,
2013-06-16 02:48:00,55.8,48.7,29.73,West,276,5.0,5.0,77,0.00,,,0.00,Wunderground v.1.15,2013-06-16 05:48:00,
2013-06-16 02:53:00,55.9,48.8,29.73,WNW,286,6.0,7.0,77,0.00,,,0.00,Wunderground v.1.15,2013-06-16 05:53:00,
2013-06-16 02:58:00,55.7,48.6,29.73,WSW,258,6.0,6.0,77,0.00,,,0.00,Wunderground v.1.15,2013-06-16 05:58:00,
2013-06-16 03:03:00,55.9,48.4,29.72,West,263,6.0,6.0,76,0.00,,,0.00,Wunderground v.1.15,2013-06-16 06:03:00,
2013-06-16 03:08:00,55.8,48.3,29.72,West,265,6.0,7.0,76,0.00,,,0.00,Wunderground v.1.15,2013-06-16 06:08:00,
2013-06-16 03:13:00,55.7,48.2,29.72,WNW,282,7.0,8.0,76,0.00,,,0.00,Wunderground v.1.15,2013-06-16 06:13:00,
2013-06-16 03:18:00,55.5,48.1,29.72,WNW,295,6.0,6.0,76,0.00,,,0.00,Wunderground v.1.15,2013-06-16 06:18:00,
2013-06-16 03:23:00,55.3,48.2,29.72,West,261,6.0,7.0,77,0.00,,,0.00,Wunderground v.1.15,2013-06-16 06:23:00,
2013-06-16 03:28:00,55.1,47.7,29.73,West,265,6.0,6.0,76,0.00,,,0.00,Wunderground v.1.15,2013-06-16 06:28:00,
2013-06-16 03:38:00,54.8,47.7,29.73,WSW,257,5.0,6.0,77,0.00,,,0.00,Wunderground v.1.15,2013-06-16 06:38:00,
2013-06-16 03:43:00,54.5,47.8,29.73,WNW,290,3.0,6.0,78,0.00,,,0.00,Wunderground v.1.15,2013-06-16 06:43:00,
2013-06-16 03:48:00,54.3,47.9,29.73,West,278,3.0,3.0,79,0.00,,,0.00,Wunderground v.1.15,2013-06-16 06:48:00,
2013-06-16 03:53:00,54.0,47.6,29.73,West,268,3.0,3.0,79,0.00,,,0.00,Wunderground v.1.15,2013-06-16 06:53:00,
2013-06-16 03:58:00,53.7,47.7,29.74,WNW,288,3.0,4.0,80,0.00,,,0.00,Wunderground v.1.15,2013-06-16 06:58:00,
2013-06-16 04:03:00,53.6,47.9,29.74,West,261,3.0,5.0,81,0.00,,,0.00,Wunderground v.1.15,2013-06-16 07:03:00,
2013-06-16 04:08:00,53.6,47.9,29.73,WNW,282,3.0,3.0,81,0.00,,,0.00,Wunderground v.1.15,2013-06-16 07:08:00,
2013-06-16 04:18:00,53.4,47.7,29.74,West,273,3.0,3.0,81,0.00,,,0.00,Wunderground v.1.15,2013-06-16 07:18:00,
2013-06-16 04:23:00,53.3,47.6,29.74,West,273,2.0,3.0,81,0.00,,,0.00,Wunderground v.1.15,2013-06-16 07:23:00,
2013-06-16 04:28:00,53.1,47.4,29.74,NNW,329,1.0,1.0,81,0.00,,,0.00,Wunderground v.1.15,2013-06-16 07:28:00,
2013-06-16 04:33:00,52.8,47.1,29.74,NNW,347,0.0,1.0,81,0.00,,,0.00,Wunderground v.1.15,2013-06-16 07:33:00,
2013-06-16 04:38:00,52.5,47.5,29.74,NNW,347,0.0,0.0,83,0.00,,,0.00,Wunderground v.1.15,2013-06-16 07:38:00,
2013-06-16 04:43:00,52.0,47.3,29.75,NNW,347,0.0,0.0,84,0.00,,,0.00,Wunderground v.1.15,2013-06-16 07:43:00,
2013-06-16 04:48:00,51.4,47.0,29.75,NNW,347,0.0,0.0,85,0.00,,,0.00,Wunderground v.1.15,2013-06-16 07:48:00,
2013-06-16 04:53:00,50.8,46.8,29.75,NE,40,0.0,2.0,86,0.00,,,0.00,Wunderground v.1.15,2013-06-16 07:53:00,
2013-06-16 05:03:00,50.8,46.8,29.75,North,355,2.0,4.0,86,0.00,,,0.00,Wunderground v.1.15,2013-06-16 08:03:00,
2013-06-16 05:08:00,50.9,46.9,29.75,NW,323,2.0,2.0,86,0.00,,,0.00,Wunderground v.1.15,2013-06-16 08:08:00,
2013-06-16 05:18:00,51.0,46.6,29.75,WNW,296,2.0,2.0,85,0.00,,,0.00,Wunderground v.1.15,2013-06-16 08:18:00,
2013-06-16 05:28:00,51.1,46.7,29.75,NW,317,1.0,1.0,85,0.00,,,0.00,Wunderground v.1.15,2013-06-16 08:28:00,
2013-06-16 05:33:00,51.2,46.8,29.76,NW,312,2.0,2.0,85,0.00,,,0.00,Wunderground v.1.15,2013-06-16 08:33:00,
2013-06-16 05:38:00,51.2,46.8,29.76,NW,322,2.0,2.0,85,0.00,,,0.00,Wunderground v.1.15,2013-06-16 08:38:00,
2013-06-16 05:48:00,51.3,46.9,29.76,NW,314,2.0,2.0,85,0.00,,,0.00,Wunderground v.1.15,2013-06-16 08:48:00,
2013-06-16 05:53:00,51.2,46.8,29.76,NNW,345,3.0,3.0,85,0.00,,,0.00,Wunderground v.1.15,2013-06-16 08:53:00,
2013-06-16 05:58:00,51.3,46.9,29.76,NW,320,3.0,3.0,85,0.00,,,0.00,Wunderground v.1.15,2013-06-16 08:58:00,
2013-06-16 06:03:00,51.3,46.9,29.77,NNW,347,3.0,3.0,85,0.00,,,0.00,Wunderground v.1.15,2013-06-16 09:03:00,
2013-06-16 06:08:00,51.4,47.4,29.77,NNW,328,3.0,4.0,86,0.00,,,0.00,Wunderground v.1.15,2013-06-16 09:08:00,
2013-06-16 06:13:00,51.5,47.5,29.77,NW,306,3.0,4.0,86,0.00,,,0.00,Wunderground v.1.15,2013-06-16 09:13:00,
2013-06-16 06:18:00,51.7,47.6,29.77,NW,316,3.0,4.0,86,0.00,,,0.00,Wunderground v.1.15,2013-06-16 09:18:00,
2013-06-16 06:23:00,51.9,47.8,29.77,NW,315,3.0,5.0,86,0.00,,,0.00,Wunderground v.1.15,2013-06-16 09:23:00,
2013-06-16 06:28:00,52.0,47.9,29.77,NW,325,4.0,4.0,86,0.00,,,0.00,Wunderground v.1.15,2013-06-16 09:28:00,
2013-06-16 06:33:00,52.3,48.2,29.78,NW,319,4.0,4.0,86,0.00,,,0.00,Wunderground v.1.15,2013-06-16 09:33:00,
2013-06-16 06:38:00,52.7,48.3,29.78,NW,324,4.0,5.0,85,0.00,,,0.00,Wunderground v.1.15,2013-06-16 09:38:00,
2013-06-16 06:43:00,53.4,49.0,29.78,NW,319,4.0,5.0,85,0.00,,,0.00,Wunderground v.1.15,2013-06-16 09:43:00,
2013-06-16 06:48:00,54.1,49.1,29.78,West,273,3.0,5.0,83,0.00,,,0.00,Wunderground v.1.15,2013-06-16 09:48:00,
2013-06-16 06:53:00,54.4,49.0,29.79,NW,317,3.0,5.0,82,0.00,,,0.00,Wunderground v.1.15,2013-06-16 09:53:00,
2013-06-16 06:58:00,54.6,48.9,29.79,WNW,284,3.0,5.0,81,0.00,,,0.00,Wunderground v.1.15,2013-06-16 09:58:00,
2013-06-16 07:08:00,55.3,49.2,29.79,WNW,301,4.0,4.0,80,0.00,,,0.00,Wunderground v.1.15,2013-06-16 10:08:00,
2013-06-16 07:13:00,55.7,48.9,29.79,NW,317,5.0,8.0,78,0.00,,,0.00,Wunderground v.1.15,2013-06-16 10:13:00,
2013-06-16 07:18:00,56.1,49.0,29.79,NW,325,5.0,5.0,77,0.00,,,0.00,Wunderground v.1.15,2013-06-16 10:18:00,
2013-06-16 07:23:00,56.7,48.9,29.80,NW,320,5.0,7.0,75,0.00,,,0.00,Wunderground v.1.15,2013-06-16 10:23:00,
2013-06-16 07:33:00,57.6,45.9,29.80,NW,318,5.0,7.0,65,0.00,,,0.00,Wunderground v.1.15,2013-06-16 10:33:00,
2013-06-16 07:38:00,57.8,46.9,29.80,NW,321,5.0,5.0,67,0.00,,,0.00,Wunderground v.1.15,2013-06-16 10:38:00,
2013-06-16 07:43:00,58.0,46.7,29.80,NNW,344,5.0,7.0,66,0.00,,,0.00,Wunderground v.1.15,2013-06-16 10:43:00,
2013-06-16 07:48:00,58.1,46.0,29.80,NNW,327,6.0,6.0,64,0.00,,,0.00,Wunderground v.1.15,2013-06-16 10:48:00,
2013-06-16 07:53:00,58.2,44.8,29.81,NNW,335,6.0,6.0,61,0.00,,,0.00,Wunderground v.1.15,2013-06-16 10:53:00,
2013-06-16 07:58:00,58.3,44.0,29.80,North,350,6.0,6.0,59,0.00,,,0.00,Wunderground v.1.15,2013-06-16 10:58:00,
2013-06-16 08:03:00,58.3,42.2,29.80,NNW,335,8.0,8.0,55,0.00,,,0.00,Wunderground v.1.15,2013-06-16 11:03:00,
2013-06-16 08:08:00,58.5,43.8,29.81,NW,319,8.0,8.0,58,0.00,,,0.00,Wunderground v.1.15,2013-06-16 11:08:00,
2013-06-16 08:13:00,58.7,43.0,29.81,NNW,348,6.0,8.0,56,0.00,,,0.00,Wunderground v.1.15,2013-06-16 11:13:00,
2013-06-16 08:18:00,59.0,43.3,29.81,NW,304,6.0,12.0,56,0.00,,,0.00,Wunderground v.1.15,2013-06-16 11:18:00,
2013-06-16 08:23:00,59.0,41.9,29.81,NW,324,7.0,12.0,53,0.00,,,0.00,Wunderground v.1.15,2013-06-16 11:23:00,
2013-06-16 08:28:00,59.3,41.7,29.81,NNW,333,8.0,8.0,52,0.00,,,0.00,Wunderground v.1.15,2013-06-16 11:28:00,
2013-06-16 08:33:00,59.3,39.6,29.81,NW,312,7.0,8.0,48,0.00,,,0.00,Wunderground v.1.15,2013-06-16 11:33:00,
2013-06-16 08:38:00,59.2,40.0,29.81,NNW,327,8.0,10.0,49,0.00,,,0.00,Wunderground v.1.15,2013-06-16 11:38:00,
2013-06-16 08:48:00,59.4,38.6,29.82,North,360,8.0,8.0,46,0.00,,,0.00,Wunderground v.1.15,2013-06-16 11:48:00,
2013-06-16 08:53:00,59.5,38.1,29.82,NW,311,8.0,17.0,45,0.00,,,0.00,Wunderground v.1.15,2013-06-16 11:53:00,
2013-06-16 08:58:00,59.8,37.8,29.83,NNW,328,8.0,8.0,44,0.00,,,0.00,Wunderground v.1.15,2013-06-16 11:58:00,
2013-06-16 09:03:00,60.2,37.0,29.83,NW,319,7.0,11.0,42,0.00,,,0.00,Wunderground v.1.15,2013-06-16 12:03:00,
2013-06-16 09:08:00,59.8,37.2,29.83,NW,314,9.0,9.0,43,0.00,,,0.00,Wunderground v.1.15,2013-06-16 12:08:00,
2013-06-16 09:13:00,60.0,38.0,29.83,NW,325,10.0,10.0,44,0.00,,,0.00,Wunderground v.1.15,2013-06-16 12:13:00,
2013-06-16 09:18:00,60.2,38.8,29.84,NNW,342,8.0,8.0,45,0.00,,,0.00,Wunderground v.1.15,2013-06-16 12:18:00,
2013-06-16 09:23:00,60.6,38.0,29.84,NNW,344,8.0,8.0,43,0.00,,,0.00,Wunderground v.1.15,2013-06-16 12:23:00,
2013-06-16 09:28:00,61.0,38.9,29.84,NW,324,8.0,9.0,44,0.00,,,0.00,Wunderground v.1.15,2013-06-16 12:28:00,
2013-06-16 09:33:00,60.7,36.8,29.84,NW,316,8.0,9.0,41,0.00,,,0.00,Wunderground v.1.15,2013-06-16 12:33:00,
2013-06-16 09:38:00,61.0,40.1,29.84,NW,324,7.0,7.0,46,0.00,,,0.00,Wunderground v.1.15,2013-06-16 12:38:00,
2013-06-16 09:43:00,61.4,39.9,29.84,NNW,331,6.0,7.0,45,0.00,,,0.00,Wunderground v.1.15,2013-06-16 12:43:00,
2013-06-16 09:48:00,61.2,39.1,29.84,WNW,290,6.0,6.0,44,0.00,,,0.00,Wunderground v.1.15,2013-06-16 12:48:00,
2013-06-16 09:53:00,60.5,39.6,29.84,NW,310,7.0,7.0,46,0.00,,,0.00,Wunderground v.1.15,2013-06-16 12:53:00,
2013-06-16 09:58:00,60.7,38.1,29.84,West,278,7.0,7.0,43,0.00,,,0.00,Wunderground v.1.15,2013-06-16 12:58:00,
2013-06-16 10:03:00,61.0,38.3,29.84,West,277,7.0,7.0,43,0.00,,,0.00,Wunderground v.1.15,2013-06-16 13:03:00,
2013-06-16 10:08:00,61.3,38.0,29.83,North,355,8.0,10.0,42,0.00,,,0.00,Wunderground v.1.15,2013-06-16 13:08:00,
2013-06-16 10:13:00,61.6,38.9,29.84,NW,306,9.0,11.0,43,0.00,,,0.00,Wunderground v.1.15,2013-06-16 13:13:00,
2013-06-16 10:18:00,60.7,36.8,29.84,NW,316,9.0,16.0,41,0.00,,,0.00,Wunderground v.1.15,2013-06-16 13:18:00,
2013-06-16 10:23:00,60.8,38.1,29.84,NW,311,10.0,16.0,43,0.00,,,0.00,Wunderground v.1.15,2013-06-16 13:23:00,
2013-06-16 10:28:00,60.7,36.2,29.84,West,276,9.0,11.0,40,0.00,,,0.00,Wunderground v.1.15,2013-06-16 13:28:00,
2013-06-16 10:33:00,60.3,35.9,29.84,West,271,9.0,11.0,40,0.00,,,0.00,Wunderground v.1.15,2013-06-16 13:33:00,
2013-06-16 10:38:00,60.7,36.8,29.84,NW,322,8.0,9.0,41,0.00,,,0.00,Wunderground v.1.15,2013-06-16 13:38:00,
2013-06-16 10:43:00,61.7,37.7,29.84,NW,318,9.0,11.0,41,0.00,,,0.00,Wunderground v.1.15,2013-06-16 13:43:00,
2013-06-16 10:48:00,61.6,36.4,29.84,NNW,342,11.0,13.0,39,0.00,,,0.00,Wunderground v.1.15,2013-06-16 13:48:00,
2013-06-16 10:53:00,61.8,37.2,29.84,NW,314,11.0,13.0,40,0.00,,,0.00,Wunderground v.1.15,2013-06-16 13:53:00,
2013-06-16 10:58:00,62.1,37.5,29.84,NNW,333,10.0,13.0,40,0.00,,,0.00,Wunderground v.1.15,2013-06-16 13:58:00,
2013-06-16 11:03:00,62.1,38.7,29.84,WNW,294,11.0,13.0,42,0.00,,,0.00,Wunderground v.1.15,2013-06-16 14:03:00,
2013-06-16 11:08:00,61.8,39.1,29.85,West,274,10.0,11.0,43,0.00,,,0.00,Wunderground v.1.15,2013-06-16 14:08:00,
2013-06-16 11:13:00,61.4,39.3,29.85,WNW,303,9.0,11.0,44,0.00,,,0.00,Wunderground v.1.15,2013-06-16 14:13:00,
2013-06-16 11:18:00,61.2,38.5,29.85,NW,311,9.0,9.0,43,0.00,,,0.00,Wunderground v.1.15,2013-06-16 14:18:00,
2013-06-16 11:23:00,60.9,37.0,29.86,WNW,294,10.0,11.0,41,0.00,,,0.00,Wunderground v.1.15,2013-06-16 14:23:00,
2013-06-16 11:28:00,60.2,33.8,29.86,WNW,303,11.0,11.0,37,0.00,,,0.00,Wunderground v.1.15,2013-06-16 14:28:00,
2013-06-16 11:38:00,60.8,36.9,29.85,West,281,10.0,10.0,41,0.00,,,0.00,Wunderground v.1.15,2013-06-16 14:38:00,
2013-06-16 11:43:00,61.4,36.2,29.86,NW,321,11.0,17.0,39,0.00,,,0.00,Wunderground v.1.15,2013-06-16 14:43:00,
2013-06-16 11:48:00,61.8,35.9,29.86,WNW,295,12.0,12.0,38,0.00,,,0.00,Wunderground v.1.15,2013-06-16 14:48:00,
2013-06-16 11:58:00,62.4,38.4,29.85,NW,304,11.0,11.0,41,0.00,,,0.00,Wunderground v.1.15,2013-06-16 14:58:00,
2013-06-16 12:03:00,62.6,37.9,29.85,NW,319,10.0,11.0,40,0.00,,,0.00,Wunderground v.1.15,2013-06-16 15:03:00,
2013-06-16 12:08:00,62.9,40.0,29.85,NNE,19,8.0,8.0,43,0.00,,,0.00,Wunderground v.1.15,2013-06-16 15:08:00,
2013-06-16 12:13:00,63.0,38.3,29.85,West,265,9.0,9.0,40,0.00,,,0.00,Wunderground v.1.15,2013-06-16 15:13:00,
2013-06-16 12:18:00,63.1,39.0,29.86,West,278,8.0,9.0,41,0.00,,,0.00,Wunderground v.1.15,2013-06-16 15:18:00,
2013-06-16 12:23:00,62.9,40.0,29.85,NW,325,8.0,10.0,43,0.00,,,0.00,Wunderground v.1.15,2013-06-16 15:23:00,
2013-06-16 12:28:00,63.5,39.4,29.86,NW,317,9.0,9.0,41,0.00,,,0.00,Wunderground v.1.15,2013-06-16 15:28:00,
2013-06-16 12:33:00,63.9,39.1,29.86,NW,321,11.0,14.0,40,0.00,,,0.00,Wunderground v.1.15,2013-06-16 15:33:00,
2013-06-16 12:38:00,63.8,40.3,29.86,West,275,10.0,12.0,42,0.00,,,0.00,Wunderground v.1.15,2013-06-16 15:38:00,
2013-06-16 12:43:00,63.6,41.9,29.86,WSW,250,9.0,12.0,45,0.00,,,0.00,Wunderground v.1.15,2013-06-16 15:43:00,
2013-06-16 12:48:00,64.4,40.2,29.85,West,267,8.0,11.0,41,0.00,,,0.00,Wunderground v.1.15,2013-06-16 15:48:00,
2013-06-16 12:53:00,63.8,42.6,29.85,West,279,9.0,11.0,46,0.00,,,0.00,Wunderground v.1.15,2013-06-16 15:53:00,
2013-06-16 12:58:00,64.0,39.8,29.85,NW,307,8.0,8.0,41,0.00,,,0.00,Wunderground v.1.15,2013-06-16 15:58:00,
2013-06-16 13:03:00,64.5,41.5,29.85,WNW,294,7.0,8.0,43,0.00,,,0.00,Wunderground v.1.15,2013-06-16 16:03:00,
2013-06-16 13:08:00,64.4,41.4,29.85,WNW,284,7.0,9.0,43,0.00,,,0.00,Wunderground v.1.15,2013-06-16 16:08:00,
2013-06-16 13:18:00,64.9,38.7,29.85,NW,320,8.0,8.0,38,0.00,,,0.00,Wunderground v.1.15,2013-06-16 16:18:00,
2013-06-16 13:23:00,65.1,40.8,29.85,NW,307,7.0,8.0,41,0.00,,,0.00,Wunderground v.1.15,2013-06-16 16:23:00,
2013-06-16 13:28:00,65.0,40.1,29.85,WSW,255,7.0,7.0,40,0.00,,,0.00,Wunderground v.1.15,2013-06-16 16:28:00,
2013-06-16 13:33:00,65.0,40.7,29.85,West,274,8.0,9.0,41,0.00,,,0.00,Wunderground v.1.15,2013-06-16 16:33:00,
2013-06-16 13:38:00,65.1,40.2,29.85,WNW,286,9.0,9.0,40,0.00,,,0.00,Wunderground v.1.15,2013-06-16 16:38:00,
2013-06-16 13:43:00,65.5,41.2,29.85,WNW,297,8.0,9.0,41,0.00,,,0.00,Wunderground v.1.15,2013-06-16 16:43:00,
2013-06-16 13:48:00,66.1,42.9,29.85,WNW,286,7.0,9.0,43,0.00,,,0.00,Wunderground v.1.15,2013-06-16 16:48:00,
2013-06-16 13:53:00,66.3,43.7,29.85,NNW,332,8.0,9.0,44,0.00,,,0.00,Wunderground v.1.15,2013-06-16 16:53:00,
2013-06-16 13:58:00,66.7,41.6,29.85,WNW,298,8.0,8.0,40,0.00,,,0.00,Wunderground v.1.15,2013-06-16 16:58:00,
2013-06-16 14:03:00,66.6,42.8,29.85,NW,306,8.0,8.0,42,0.00,,,0.00,Wunderground v.1.15,2013-06-16 17:03:00,
2013-06-16 14:08:00,66.9,40.5,29.85,NNW,331,7.0,16.0,38,0.00,,,0.00,Wunderground v.1.15,2013-06-16 17:08:00,
2013-06-16 14:13:00,66.5,40.1,29.85,West,266,9.0,16.0,38,0.00,,,0.00,Wunderground v.1.15,2013-06-16 17:13:00,
2013-06-16 14:18:00,66.6,40.9,29.85,NW,317,9.0,12.0,39,0.00,,,0.00,Wunderground v.1.15,2013-06-16 17:18:00,
2013-06-16 14:23:00,67.2,43.3,29.85,WNW,303,8.0,12.0,42,0.00,,,0.00,Wunderground v.1.15,2013-06-16 17:23:00,
2013-06-16 14:28:00,67.5,42.3,29.85,West,266,6.0,10.0,40,0.00,,,0.00,Wunderground v.1.15,2013-06-16 17:28:00,
2013-06-16 14:33:00,66.8,39.0,29.85,WNW,285,5.0,10.0,36,0.00,,,0.00,Wunderground v.1.15,2013-06-16 17:33:00,
2013-06-16 14:38:00,66.3,44.9,29.85,WSW,238,5.0,5.0,46,0.00,,,0.00,Wunderground v.1.15,2013-06-16 17:38:00,
2013-06-16 14:43:00,66.2,41.2,29.85,WSW,246,4.0,5.0,40,0.00,,,0.00,Wunderground v.1.15,2013-06-16 17:43:00,
2013-06-16 14:48:00,66.4,41.3,29.85,WSW,241,5.0,7.0,40,0.00,,,0.00,Wunderground v.1.15,2013-06-16 17:48:00,
2013-06-16 14:53:00,66.7,40.9,29.86,WNW,283,5.0,7.0,39,0.00,,,0.00,Wunderground v.1.15,2013-06-16 17:53:00,
2013-06-16 14:58:00,66.4,40.7,29.85,West,262,5.0,10.0,39,0.00,,,0.00,Wunderground v.1.15,2013-06-16 17:58:00,
2013-06-16 15:03:00,66.4,40.7,29.86,WNW,296,6.0,10.0,39,0.00,,,0.00,Wunderground v.1.15,2013-06-16 18:03:00,
2013-06-16 15:08:00,66.8,41.7,29.86,NW,315,6.0,7.0,40,0.00,,,0.00,Wunderground v.1.15,2013-06-16 18:08:00,
2013-06-16 15:13:00,67.1,45.0,29.85,WNW,286,4.0,7.0,45,0.00,,,0.00,Wunderground v.1.15,2013-06-16 18:13:00,
2013-06-16 15:18:00,67.8,41.3,29.85,WSW,256,5.0,6.0,38,0.00,,,0.00,Wunderground v.1.15,2013-06-16 18:18:00,
2013-06-16 15:23:00,67.9,42.7,29.85,WNW,296,5.0,6.0,40,0.00,,,0.00,Wunderground v.1.15,2013-06-16 18:23:00,
2013-06-16 15:28:00,67.9,39.9,29.85,WSW,257,5.0,7.0,36,0.00,,,0.00,Wunderground v.1.15,2013-06-16 18:28:00,
2013-06-16 15:33:00,67.9,40.7,29.85,WSW,258,4.0,7.0,37,0.00,,,0.00,Wunderground v.1.15,2013-06-16 18:33:00,
2013-06-16 15:38:00,68.0,40.0,29.85,WSW,240,4.0,4.0,36,0.00,,,0.00,Wunderground v.1.15,2013-06-16 18:38:00,
2013-06-16 15:43:00,68.4,43.1,29.85,West,265,4.0,4.0,40,0.00,,,0.00,Wunderground v.1.15,2013-06-16 18:43:00,
2013-06-16 15:48:00,68.9,43.6,29.85,WSW,255,3.0,6.0,40,0.00,,,0.00,Wunderground v.1.15,2013-06-16 18:48:00,
2013-06-16 15:53:00,69.0,43.7,29.85,West,279,4.0,7.0,40,0.00,,,0.00,Wunderground v.1.15,2013-06-16 18:53:00,
2013-06-16 15:58:00,69.1,45.7,29.85,West,261,4.0,6.0,43,0.00,,,0.00,Wunderground v.1.15,2013-06-16 18:58:00,
2013-06-16 16:03:00,68.9,42.2,29.85,West,271,4.0,6.0,38,0.00,,,0.00,Wunderground v.1.15,2013-06-16 19:03:00,
2013-06-16 16:08:00,68.6,45.2,29.85,WNW,297,4.0,4.0,43,0.00,,,0.00,Wunderground v.1.15,2013-06-16 19:08:00,
2013-06-16 16:13:00,68.7,42.7,29.85,WNW,288,4.0,4.0,39,0.00,,,0.00,Wunderground v.1.15,2013-06-16 19:13:00,
2013-06-16 16:18:00,68.6,48.1,29.85,SSW,196,3.0,3.0,48,0.00,,,0.00,Wunderground v.1.15,2013-06-16 19:18:00,
2013-06-16 16:23:00,69.0,42.3,29.85,SW,229,3.0,4.0,38,0.00,,,0.00,Wunderground v.1.15,2013-06-16 19:23:00,
2013-06-16 16:28:00,69.2,43.8,29.85,SW,233,3.0,3.0,40,0.00,,,0.00,Wunderground v.1.15,2013-06-16 19:28:00,
2013-06-16 16:33:00,68.8,42.8,29.85,WNW,296,3.0,5.0,39,0.00,,,0.00,Wunderground v.1.15,2013-06-16 19:33:00,
2013-06-16 16:38:00,68.5,41.9,29.85,West,261,3.0,3.0,38,0.00,,,0.00,Wunderground v.1.15,2013-06-16 19:38:00,
2013-06-16 16:43:00,68.6,44.6,29.85,West,266,3.0,3.0,42,0.00,,,0.00,Wunderground v.1.15,2013-06-16 19:43:00,
2013-06-16 16:48:00,69.0,41.6,29.85,WSW,256,2.0,2.0,37,0.00,,,0.00,Wunderground v.1.15,2013-06-16 19:48:00,
2013-06-16 16:53:00,69.4,41.3,29.85,NW,318,2.0,2.0,36,0.00,,,0.00,Wunderground v.1.15,2013-06-16 19:53:00,
2013-06-16 16:58:00,69.9,41.7,29.85,WNW,299,2.0,2.0,36,0.00,,,0.00,Wunderground v.1.15,2013-06-16 19:58:00,
2013-06-16 17:03:00,69.5,39.1,29.85,West,273,3.0,3.0,33,0.00,,,0.00,Wunderground v.1.15,2013-06-16 20:03:00,
2013-06-16 17:08:00,69.2,40.4,29.85,NW,321,3.0,3.0,35,0.00,,,0.00,Wunderground v.1.15,2013-06-16 20:08:00,
2013-06-16 17:13:00,69.2,39.6,29.85,West,272,3.0,3.0,34,0.00,,,0.00,Wunderground v.1.15,2013-06-16 20:13:00,
2013-06-16 17:18:00,68.7,40.7,29.85,WNW,293,3.0,3.0,36,0.00,,,0.00,Wunderground v.1.15,2013-06-16 20:18:00,
2013-06-16 17:23:00,68.8,40.0,29.85,WNW,285,3.0,3.0,35,0.00,,,0.00,Wunderground v.1.15,2013-06-16 20:23:00,
2013-06-16 17:33:00,69.6,39.2,29.85,WNW,298,2.0,2.0,33,0.00,,,0.00,Wunderground v.1.15,2013-06-16 20:33:00,
2013-06-16 17:38:00,70.0,39.6,29.85,WSW,254,3.0,3.0,33,0.00,,,0.00,Wunderground v.1.15,2013-06-16 20:38:00,
2013-06-16 17:43:00,70.2,40.5,29.85,WNW,297,2.0,3.0,34,0.00,,,0.00,Wunderground v.1.15,2013-06-16 20:43:00,
2013-06-16 17:48:00,69.6,38.4,29.86,West,281,3.0,3.0,32,0.00,,,0.00,Wunderground v.1.15,2013-06-16 20:48:00,
2013-06-16 17:53:00,69.3,38.9,29.86,NW,325,2.0,3.0,33,0.00,,,0.00,Wunderground v.1.15,2013-06-16 20:53:00,
2013-06-16 17:58:00,69.6,42.2,29.86,West,267,2.0,2.0,37,0.00,,,0.00,Wunderground v.1.15,2013-06-16 20:58:00,
2013-06-16 18:03:00,69.2,38.9,29.85,West,261,2.0,2.0,33,0.00,,,0.00,Wunderground v.1.15,2013-06-16 21:03:00,
2013-06-16 18:08:00,69.1,41.0,29.86,West,271,2.0,3.0,36,0.00,,,0.00,Wunderground v.1.15,2013-06-16 21:08:00,
2013-06-16 18:13:00,69.0,40.9,29.86,WNW,284,2.0,3.0,36,0.00,,,0.00,Wunderground v.1.15,2013-06-16 21:13:00,
2013-06-16 18:18:00,68.9,39.4,29.86,West,268,2.0,3.0,34,0.00,,,0.00,Wunderground v.1.15,2013-06-16 21:18:00,
2013-06-16 18:23:00,69.0,40.2,29.86,West,274,2.0,3.0,35,0.00,,,0.00,Wunderground v.1.15,2013-06-16 21:23:00,
2013-06-16 18:28:00,68.9,41.5,29.86,WSW,254,2.0,2.0,37,0.00,,,0.00,Wunderground v.1.15,2013-06-16 21:28:00,
2013-06-16 18:33:00,68.7,41.4,29.86,West,261,2.0,2.0,37,0.00,,,0.00,Wunderground v.1.15,2013-06-16 21:33:00,
2013-06-16 18:38:00,68.8,40.0,29.86,West,280,2.0,3.0,35,0.00,,,0.00,Wunderground v.1.15,2013-06-16 21:38:00,
2013-06-16 18:43:00,69.0,43.0,29.86,NNW,327,2.0,3.0,39,0.00,,,0.00,Wunderground v.1.15,2013-06-16 21:43:00,
2013-06-16 18:53:00,68.6,42.0,29.86,WSW,257,1.0,2.0,38,0.00,,,0.00,Wunderground v.1.15,2013-06-16 21:53:00,
2013-06-16 18:58:00,68.2,41.6,29.86,WSW,257,0.0,0.0,38,0.00,,,0.00,Wunderground v.1.15,2013-06-16 21:58:00,
2013-06-16 19:03:00,67.9,42.0,29.86,WSW,257,0.0,0.0,39,0.00,,,0.00,Wunderground v.1.15,2013-06-16 22:03:00,
2013-06-16 19:08:00,67.7,44.4,29.86,WSW,257,0.0,0.0,43,0.00,,,0.00,Wunderground v.1.15,2013-06-16 22:08:00,
2013-06-16 19:13:00,67.4,44.7,29.85,WSW,257,0.0,0.0,44,0.00,,,0.00,Wunderground v.1.15,2013-06-16 22:13:00,
2013-06-16 19:23:00,66.5,46.7,29.85,WSW,257,0.0,0.0,49,0.00,,,0.00,Wunderground v.1.15,2013-06-16 22:23:00,
2013-06-16 19:28:00,66.2,49.1,29.85,WSW,257,0.0,0.0,54,0.00,,,0.00,Wunderground v.1.15,2013-06-16 22:28:00,
2013-06-16 19:33:00,65.7,46.5,29.84,East,92,1.0,1.0,50,0.00,,,0.00,Wunderground v.1.15,2013-06-16 22:33:00,
2013-06-16 19:38:00,65.2,49.1,29.84,SSE,160,1.0,1.0,56,0.00,,,0.00,Wunderground v.1.15,2013-06-16 22:38:00,
2013-06-16 19:48:00,63.8,49.2,29.84,SSE,157,1.0,1.0,59,0.00,,,0.00,Wunderground v.1.15,2013-06-16 22:48:00,
2013-06-16 19:53:00,63.1,49.0,29.85,SSW,195,1.0,1.0,60,0.00,,,0.00,Wunderground v.1.15,2013-06-16 22:53:00,
2013-06-16 19:58:00,62.4,48.3,29.85,SE,144,1.0,1.0,60,0.00,,,0.00,Wunderground v.1.15,2013-06-16 22:58:00,
2013-06-16 20:03:00,62.0,48.0,29.85,SE,142,0.0,1.0,60,0.00,,,0.00,Wunderground v.1.15,2013-06-16 23:03:00,
2013-06-16 20:08:00,61.7,48.1,29.85,SE,142,0.0,0.0,61,0.00,,,0.00,Wunderground v.1.15,2013-06-16 23:08:00,
2013-06-16 20:13:00,61.4,47.4,29.85,SE,145,0.0,1.0,60,0.00,,,0.00,Wunderground v.1.15,2013-06-16 23:13:00,
2013-06-16 20:18:00,61.1,47.5,29.85,SSE,147,0.0,0.0,61,0.00,,,0.00,Wunderground v.1.15,2013-06-16 23:18:00,
2013-06-16 20:23:00,60.8,48.1,29.85,SSE,162,0.0,0.0,63,0.00,,,0.00,Wunderground v.1.15,2013-06-16 23:23:00,
2013-06-16 20:28:00,60.5,47.8,29.86,SSE,162,0.0,0.0,63,0.00,,,0.00,Wunderground v.1.15,2013-06-16 23:28:00,
2013-06-16 20:33:00,60.2,47.6,29.85,ESE,102,0.0,0.0,63,0.00,,,0.00,Wunderground v.1.15,2013-06-16 23:33:00,
2013-06-16 20:43:00,59.8,48.0,29.85,ESE,102,0.0,0.0,65,0.00,,,0.00,Wunderground v.1.15,2013-06-16 23:43:00,
2013-06-16 20:48:00,59.6,47.4,29.85,ESE,102,0.0,0.0,64,0.00,,,0.00,Wunderground v.1.15,2013-06-16 23:48:00,
2013-06-16 20:53:00,59.4,48.0,29.84,ESE,102,0.0,0.0,66,0.00,,,0.00,Wunderground v.1.15,2013-06-16 23:53:00,
2013-06-16 20:58:00,59.3,48.3,29.85,ESE,109,0.0,0.0,67,0.00,,,0.00,Wunderground v.1.15,2013-06-16 23:58:00,
2013-06-16 21:03:00,59.0,46.8,29.85,SSE,156,0.0,1.0,64,0.00,,,0.00,Wunderground v.1.15,2013-06-17 00:03:00,
2013-06-16 21:13:00,58.9,46.7,29.86,SSE,150,1.0,1.0,64,0.00,,,0.00,Wunderground v.1.15,2013-06-17 00:13:00,
2013-06-16 21:18:00,58.8,47.1,29.86,SSE,155,1.0,1.0,65,0.00,,,0.00,Wunderground v.1.15,2013-06-17 00:18:00,
2013-06-16 21:23:00,58.7,47.4,29.86,South,171,0.0,1.0,66,0.00,,,0.00,Wunderground v.1.15,2013-06-17 00:23:00,
2013-06-16 21:28:00,58.6,46.9,29.87,SSE,163,0.0,1.0,65,0.00,,,0.00,Wunderground v.1.15,2013-06-17 00:28:00,
2013-06-16 21:33:00,58.6,47.3,29.87,SE,136,1.0,1.0,66,0.00,,,0.00,Wunderground v.1.15,2013-06-17 00:33:00,
2013-06-16 21:38:00,58.5,48.0,29.87,South,187,0.0,0.0,68,0.00,,,0.00,Wunderground v.1.15,2013-06-17 00:38:00,
2013-06-16 21:43:00,58.4,48.3,29.87,South,187,0.0,0.0,69,0.00,,,0.00,Wunderground v.1.15,2013-06-17 00:43:00,
2013-06-16 21:48:00,58.3,48.6,29.87,South,187,0.0,0.0,70,0.00,,,0.00,Wunderground v.1.15,2013-06-17 00:48:00,
2013-06-16 21:58:00,58.1,49.9,29.88,South,187,0.0,0.0,74,0.00,,,0.00,Wunderground v.1.15,2013-06-17 00:58:00,
2013-06-16 22:08:00,57.8,50.3,29.88,SSW,195,0.0,0.0,76,0.00,,,0.00,Wunderground v.1.15,2013-06-17 01:08:00,
2013-06-16 22:13:00,57.6,51.1,29.88,ESE,107,0.0,0.0,79,0.00,,,0.00,Wunderground v.1.15,2013-06-17 01:13:00,
2013-06-16 22:18:00,57.3,51.9,29.87,East,95,0.0,0.0,82,0.00,,,0.00,Wunderground v.1.15,2013-06-17 01:18:00,
2013-06-16 22:23:00,56.8,51.4,29.87,ESE,105,0.0,2.0,82,0.00,,,0.00,Wunderground v.1.15,2013-06-17 01:23:00,
2013-06-16 22:28:00,56.5,51.4,29.88,SE,128,0.0,1.0,83,0.00,,,0.00,Wunderground v.1.15,2013-06-17 01:28:00,
2013-06-16 22:33:00,56.2,51.7,29.87,SE,146,0.0,1.0,85,0.00,,,0.00,Wunderground v.1.15,2013-06-17 01:33:00,
2013-06-16 22:38:00,56.0,51.2,29.87,NE,50,0.0,1.0,84,0.00,,,0.01,Wunderground v.1.15,2013-06-17 01:38:00,
2013-06-16 22:43:00,55.8,52.0,29.85,East,86,1.0,1.0,87,0.00,,,0.01,Wunderground v.1.15,2013-06-17 01:43:00,
2013-06-16 22:53:00,55.1,51.6,29.84,ESE,103,2.0,3.0,88,0.00,,,0.01,Wunderground v.1.15,2013-06-17 01:53:00,
2013-06-16 22:58:00,55.1,51.0,29.84,NNE,32,2.0,2.0,86,0.00,,,0.01,Wunderground v.1.15,2013-06-17 01:58:00,
2013-06-16 23:03:00,55.1,51.0,29.85,ENE,73,1.0,2.0,86,0.00,,,0.01,Wunderground v.1.15,2013-06-17 02:03:00,
2013-06-16 23:08:00,55.1,51.3,29.85,ESE,108,0.0,0.0,87,0.00,,,0.01,Wunderground v.1.15,2013-06-17 02:08:00,
2013-06-16 23:13:00,55.1,50.4,29.86,ESE,110,0.0,0.0,84,0.00,,,0.01,Wunderground v.1.15,2013-06-17 02:13:00,
2013-06-16 23:18:00,55.1,50.4,29.86,NNE,21,0.0,0.0,84,0.00,,,0.01,Wunderground v.1.15,2013-06-17 02:18:00,
2013-06-16 23:23:00,55.1,51.3,29.88,NNE,15,0.0,0.0,87,0.00,,,0.01,Wunderground v.1.15,2013-06-17 02:23:00,
2013-06-16 23:28:00,55.1,51.6,29.88,NNE,15,0.0,0.0,88,0.00,,,0.02,Wunderground v.1.15,2013-06-17 02:28:00,
2013-06-16 23:33:00,54.9,51.4,29.88,ENE,78,0.0,0.0,88,0.11,,,0.02,Wunderground v.1.15,2013-06-17 02:33:00,
2013-06-16 23:38:00,54.6,51.7,29.87,East,90,0.0,2.0,90,0.07,,,0.02,Wunderground v.1.15,2013-06-17 02:38:00,
2013-06-16 23:43:00,54.3,50.8,29.86,East,88,1.0,2.0,88,0.05,,,0.02,Wunderground v.1.15,2013-06-17 02:43:00,
2013-06-16 23:48:00,54.0,51.1,29.85,ENE,74,2.0,2.0,90,0.00,,,0.03,Wunderground v.1.15,2013-06-17 02:48:00,
2013-06-16 23:53:00,53.8,50.6,29.85,NNE,28,2.0,2.0,89,0.00,,,0.03,Wunderground v.1.15,2013-06-17 02:53:00,
2013-06-16 23:58:00,53.7,50.5,29.86,NNE,24,2.0,2.0,89,0.00,,,0.03,Wunderground v.1.15,2013-06-17 02:58:00,